This is the latest recevied weather packets stored in our database for station/object SQ3MKP-13. If no packets are shown the sender has not sent any weather packets the latest 10 day(s).
| Time | Temp. | Humidity | Pressure | Rain* | Wind** | Luminosity | Snow |
|---|---|---|---|---|---|---|---|
| 1777535965 | 9.44° C | 47% | 1021.8 hPa | - | - | 182 W/m² | - |
| 1777535664 | 8.89° C | 48% | 1021.8 hPa | - | - | 180 W/m² | - |
| 1777535363 | 9.44° C | 47% | 1021.9 hPa | - | - | 172 W/m² | - |
| 1777535063 | 9.44° C | 48% | 1021.7 hPa | - | - | 177 W/m² | - |
| 1777534762 | 9.44° C | 47% | 1021.8 hPa | - | - | 175 W/m² | - |
| 1777534460 | 8.89° C | 47% | 1021.8 hPa | - | - | 174 W/m² | - |
| 1777534159 | 8.89° C | 45% | 1021.7 hPa | - | - | 159 W/m² | - |
| 1777533858 | 8.89° C | 45% | 1021.7 hPa | - | - | 162 W/m² | - |
| 1777533557 | 8.89° C | 47% | 1021.7 hPa | - | - | 161 W/m² | - |
| 1777533256 | 8.33° C | 51% | 1021.7 hPa | - | - | 176 W/m² | - |
| 1777532955 | 8.33° C | 54% | 1021.7 hPa | - | - | 239 W/m² | - |
| 1777532655 | 8.33° C | 54% | 1021.7 hPa | - | - | 247 W/m² | - |
| 1777532354 | 7.78° C | 54% | 1021.6 hPa | - | - | 263 W/m² | - |
| 1777532053 | 7.78° C | 54% | 1021.6 hPa | - | - | 263 W/m² | - |
| 1777531751 | 7.22° C | 62% | 1021.6 hPa | - | - | 219 W/m² | - |
| 1777531450 | 7.22° C | 62% | 1021.6 hPa | - | - | 219 W/m² | - |
| 1777531149 | 6.11° C | 62% | 1021.6 hPa | - | - | 195 W/m² | - |
| 1777530848 | 6.11° C | 62% | 1021.6 hPa | - | - | 195 W/m² | - |
| 1777530547 | 5.56° C | 63% | 1021.5 hPa | - | - | 182 W/m² | - |
| 1777530247 | 5.56° C | 63% | 1021.6 hPa | - | - | 182 W/m² | - |
| 1777529946 | 5.56° C | 64% | 1021.6 hPa | - | - | 163 W/m² | - |
| 1777529644 | 5.56° C | 64% | 1021.5 hPa | - | - | 162 W/m² | - |
| 1777529343 | 5° C | 65% | 1021.4 hPa | - | - | 186 W/m² | - |
| 1777529043 | 5° C | 66% | 1021.4 hPa | - | - | 181 W/m² | - |
| 1777528742 | 5° C | 67% | 1021.5 hPa | - | - | 174 W/m² | - |
* Rain since midnight (hover to see other rain measurements)
** Current wind speed in m/s (hover to see current wind gust speed)